Colby, KS

2:58 AM CST on December 11, 2019 (GMT -0600)
Shaltz

Weather History for KCBK - November, 2019

Change the Weather History Date:

Tuesday, November 12, 2019

  Actual Average (KGLD) Record (KGLD)
Temperature  
Mean Temperature 26 °F 41 °F  
Max Temperature 53 °F 54 °F 78 °F (1989)
Min Temperature -2 °F 27 °F -2 °F (1911)
Degree Days  
Heating Degree Days 40 24  
Month to date heating degree days 260  
Since 1 July heating degree days 800  
Cooling Degree Days 0 0  
Month to date cooling degree days 0  
Year to date cooling degree days 941  
Moisture  
Dew Point 8 °F    
Average Humidity 53    
Maximum Humidity 92    
Minimum Humidity 16    
Precipitation  
Precipitation 0.00 in 0.02 in 0.45 in (1912)
Month to date precipitation 0.34  
Year to date precipitation 18.83  
Snow  
Snow 0.00 in 0.10 in - ()
Month to date snowfall 1.5  
Since 1 July snowfall 4.1  
Since 1 September snowfall 4.1  
Snow Depth -    
Sea Level Pressure  
Sea Level Pressure 30.22 in    
Wind  
Wind Speed 10 mph (SSW)    
Max Wind Speed 22 mph    
Max Gust Speed 28 mph    
Visibility 10 miles    
Events      
T = Trace of Precipitation, MM = Missing Value Source: NWS Daily Summary

Daily Weather History Graph

Daily Weather History Graph

Search for Another Location

Airport or City:

Astronomy

Nov. 12, 2019 Rise Set
Actual Time 7:24 AM CST 5:31 PM CST
Civil Twilight 6:55 AM CST 6:00 PM CST
Nautical Twilight 6:23 AM CST 6:32 PM CST
Astronomical Twilight 5:51 AM CST 7:04 PM CST
Moon 5:59 PM CST (11/12) 7:18 AM CST (11/12)
Length of Visible Light 11h 04m
Length of Day
10h 07m
Full, 100% of the Moon is Illuminated
Nov 12
Full
Nov 19
Last Quarter
Nov 26
New
Dec 4
First Quarter
Dec 11
Full

Hourly Weather History & Observations

Time (CST) Temp. Windchill Dew Point Humidity Pressure Visibility Wind Dir Wind Speed Gust Speed Precip Events Conditions
12:15 AM -0.4 °F -10.4 °F -5.8 °F 78% 30.58 in 10.0 mi West 4.6 mph - N/A   Clear
12:35 AM -0.4 °F -12.0 °F -4.0 °F 85% 30.57 in 10.0 mi West 5.8 mph - N/A   Clear
1:35 AM -2.2 °F -14.2 °F -5.8 °F 85% 30.55 in 10.0 mi WSW 5.8 mph - N/A   Clear
1:55 AM -0.4 °F -12.0 °F -4.0 °F 85% 30.54 in 10.0 mi WSW 5.8 mph - N/A   Clear
2:15 AM -0.4 °F -12.0 °F -4.0 °F 85% 30.53 in 10.0 mi SW 5.8 mph - N/A   Clear
2:35 AM -0.4 °F -12.0 °F -4.0 °F 85% 30.52 in 10.0 mi SW 5.8 mph - N/A   Clear
2:55 AM -0.4 °F -12.0 °F -4.0 °F 85% 30.52 in 10.0 mi WSW 5.8 mph - N/A   Clear
3:15 AM -0.4 °F -10.4 °F -4.0 °F 85% 30.51 in 10.0 mi SW 4.6 mph - N/A   Clear
3:35 AM -0.4 °F -8.3 °F -4.0 °F 85% 30.49 in 10.0 mi SSW 3.5 mph - N/A   Clear
3:55 AM 1.4 °F -9.9 °F -4.0 °F 78% 30.47 in 10.0 mi SW 5.8 mph - N/A   Clear
4:15 AM 1.4 °F -12.5 °F -4.0 °F 78% 30.46 in 10.0 mi SW 8.1 mph - N/A   Clear
4:35 AM 5.0 °F -6.9 °F 1.4 °F 85% 30.45 in 10.0 mi SW 6.9 mph - N/A   Clear
4:55 AM 5.0 °F -8.1 °F 3.2 °F 92% 30.45 in 10.0 mi SW 8.1 mph - N/A   Clear
5:15 AM 6.8 °F -4.8 °F 3.2 °F 85% 30.43 in 10.0 mi SW 6.9 mph - N/A   Clear
5:35 AM 6.8 °F -4.8 °F 3.2 °F 85% 30.42 in 10.0 mi SW 6.9 mph - N/A   Clear
5:55 AM 5.0 °F -5.6 °F 1.4 °F 85% 30.41 in 10.0 mi SW 5.8 mph - N/A   Clear
6:15 AM 6.8 °F -4.8 °F 3.2 °F 85% 30.41 in 10.0 mi SW 6.9 mph - N/A   Clear
6:35 AM 8.6 °F -4.7 °F 3.2 °F 79% 30.40 in 10.0 mi SW 9.2 mph - N/A   Clear
6:55 AM 8.6 °F -4.7 °F 5.0 °F 85% 30.38 in 10.0 mi SW 9.2 mph - N/A   Clear
7:15 AM 10.4 °F -1.5 °F 5.0 °F 79% 30.38 in 10.0 mi SSW 8.1 mph - N/A   Clear
7:35 AM 10.4 °F -1.5 °F 5.0 °F 79% 30.37 in 10.0 mi SSW 8.1 mph - N/A   Clear
7:55 AM 10.4 °F -1.5 °F 6.8 °F 85% 30.36 in 10.0 mi SSW 8.1 mph - N/A   Clear
8:15 AM 14.0 °F 1.2 °F 8.6 °F 79% 30.35 in 10.0 mi SSW 10.4 mph - N/A   Clear
8:35 AM 17.6 °F 6.4 °F 10.4 °F 73% 30.35 in 10.0 mi SSW 9.2 mph - N/A   Clear
8:55 AM 19.4 °F 7.9 °F 12.2 °F 74% 30.34 in 10.0 mi SSW 10.4 mph - N/A   Clear
9:15 AM 23.0 °F 10.6 °F 15.8 °F 74% 30.33 in 10.0 mi SSW 13.8 mph - N/A   Clear
9:35 AM 26.6 °F 14.3 °F 17.6 °F 69% 30.32 in 10.0 mi SSW 16.1 mph 21.9 mph N/A   Clear
10:15 AM 30.2 °F 18.5 °F 19.4 °F 64% 30.30 in 10.0 mi SSW 17.3 mph 21.9 mph N/A   Clear
10:35 AM 32.0 °F 20.8 °F 19.4 °F 60% 30.30 in 10.0 mi SSW 17.3 mph 25.3 mph N/A   Clear
10:55 AM 32.0 °F 21.2 °F 19.4 °F 60% 30.29 in 10.0 mi SW 16.1 mph 21.9 mph N/A   Clear
11:35 AM 35.6 °F 25.9 °F 19.4 °F 52% 30.26 in 10.0 mi SSW 16.1 mph 25.3 mph N/A   Clear
11:55 AM 39.2 °F 29.8 °F 19.4 °F 45% 30.25 in 10.0 mi SSW 18.4 mph - N/A   Clear
12:15 PM 41.0 °F 32.8 °F 17.6 °F 39% 30.23 in 10.0 mi SSW 16.1 mph 23.0 mph N/A   Clear
12:35 PM 44.6 °F 36.9 °F 17.6 °F 34% 30.20 in 10.0 mi SSW 18.4 mph 21.9 mph N/A   Clear
12:55 PM 46.4 °F 39.0 °F 15.8 °F 29% 30.18 in 10.0 mi SSW 19.6 mph 24.2 mph N/A   Clear
1:15 PM 46.4 °F 38.5 °F 14.0 °F 27% 30.17 in 10.0 mi SW 21.9 mph 26.5 mph N/A   Clear
1:35 PM 48.2 °F - 14.0 °F 25% 30.14 in 10.0 mi SSW 18.4 mph 25.3 mph N/A   Clear
1:55 PM 50.0 °F - 14.0 °F 24% 30.12 in 10.0 mi SSW 19.6 mph 26.5 mph N/A   Clear
2:15 PM 51.8 °F - 14.0 °F 22% 30.11 in 10.0 mi SSW 19.6 mph 26.5 mph N/A   Clear
2:35 PM 51.8 °F - 12.2 °F 21% 30.09 in 10.0 mi SSW 18.4 mph 27.6 mph N/A   Clear
2:55 PM 53.6 °F - 10.4 °F 18% 30.09 in 10.0 mi SSW 17.3 mph 25.3 mph N/A   Clear
3:15 PM 51.8 °F - 8.6 °F 18% 30.08 in 10.0 mi SSW 19.6 mph 25.3 mph N/A   Clear
3:35 PM 53.6 °F - 8.6 °F 16% 30.07 in 10.0 mi SSW 18.4 mph 23.0 mph N/A   Clear
3:55 PM 51.8 °F - 6.8 °F 16% 30.07 in 10.0 mi SSW 19.6 mph 25.3 mph N/A   Clear
4:15 PM 51.8 °F - 6.8 °F 16% 30.07 in 10.0 mi SSW 18.4 mph 24.2 mph N/A   Clear
4:35 PM 50.0 °F - 8.6 °F 19% 30.06 in 10.0 mi SSW 15.0 mph 20.7 mph N/A   Clear
4:55 PM 48.2 °F - 8.6 °F 20% 30.06 in 10.0 mi SSW 15.0 mph 19.6 mph N/A   Clear
5:15 PM 46.4 °F 41.5 °F 8.6 °F 22% 30.05 in 10.0 mi SSW 10.4 mph - N/A   Clear
5:35 PM 44.6 °F 39.2 °F 8.6 °F 23% 30.04 in 10.0 mi SSW 10.4 mph - N/A   Clear
5:55 PM 42.8 °F 36.2 °F 8.6 °F 25% 30.04 in 10.0 mi South 12.7 mph - N/A   Clear
6:15 PM 41.0 °F 34.3 °F 8.6 °F 26% 30.03 in 10.0 mi South 11.5 mph - N/A   Clear
6:35 PM 41.0 °F 34.7 °F 10.4 °F 29% 30.02 in 10.0 mi South 10.4 mph 20.7 mph N/A   Clear
7:15 PM 39.2 °F 31.2 °F 10.4 °F 31% 30.01 in 10.0 mi South 13.8 mph 19.6 mph N/A   Clear
7:35 PM 39.2 °F 31.2 °F 10.4 °F 31% 30.01 in 10.0 mi South 13.8 mph 18.4 mph N/A   Clear
8:15 PM 37.4 °F 28.2 °F 10.4 °F 33% 29.99 in 10.0 mi South 16.1 mph 21.9 mph N/A   Clear
8:35 PM 37.4 °F 29.3 °F 10.4 °F 33% 29.98 in 10.0 mi South 12.7 mph 17.3 mph N/A   Clear
8:55 PM 35.6 °F 27.5 °F 12.2 °F 38% 29.97 in 10.0 mi SSW 11.5 mph - N/A   Clear
9:15 PM 35.6 °F 27.5 °F 12.2 °F 38% 29.96 in 10.0 mi South 11.5 mph - N/A   Clear
9:35 PM 35.6 °F 27.5 °F 12.2 °F 38% 29.95 in 10.0 mi SSW 11.5 mph 16.1 mph N/A   Clear
9:55 PM 35.6 °F 27.1 °F 12.2 °F 38% 29.94 in 10.0 mi SSW 12.7 mph - N/A   Clear
10:15 PM 35.6 °F 27.5 °F 12.2 °F 38% 29.93 in 10.0 mi SSW 11.5 mph - N/A   Clear
10:35 PM 33.8 °F 25.8 °F 12.2 °F 41% 29.93 in 10.0 mi SSW 10.4 mph - N/A   Clear
10:55 PM 32.0 °F 23.0 °F 12.2 °F 44% 29.92 in 10.0 mi SW 11.5 mph - N/A   Clear
11:15 PM 32.0 °F 24.8 °F 12.2 °F 44% 29.91 in 10.0 mi SW 8.1 mph - N/A   Clear
11:35 PM 30.2 °F 22.6 °F 12.2 °F 47% 29.91 in 10.0 mi SW 8.1 mph - N/A   Clear
11:55 PM 30.2 °F 21.9 °F 12.2 °F 47% 29.90 in 10.0 mi WSW 9.2 mph - N/A   Clear